Regional Weather Roundup
Issued by NWS

Home | Current Version | Previous Version | Text Only | Print | Product List | Glossary Off
Versions: 1 2 3 4 5 6 7 8 9 10 11 12 13 14 15 16 17 18 19 20 21 22 23 24 25 26 27 28 29 30 31 32 33 34 35 36 37 38 39 40 41 42 43 44 45 46 47 48 49 50

000
ASUS43 KFSD 251610
RWRSD

WEATHER ROUNDUP FOR SOUTH DAKOTA
NATIONAL WEATHER SERVICE SIOUX FALLS SD
1100 AM CDT SAT MAR 25 2017

NOTE: "FAIR" INDICATES FEW OR NO CLOUDS BELOW 12,000 FEET WITH NO
SIGNIFICANT WEATHER AND/OR OBSTRUCTIONS TO VISIBILITY.


SDZ001>005-009-010-012>017-251700-
NORTHWEST AND NORTH CENTRAL SOUTH DAKOTA

CITY           SKY/WX    TMP DP  RH WIND       PRES   REMARKS
BUFFALO          N/A     46  33  60 S8        29.86R
FAITH            N/A     38  34  85 SE22      29.95S
MOBRIDGE       CLOUDY    35  30  82 S16       30.05S WCI  25
$$

SDZ012>016-024>037-041>051-057-063-072>074-251700-
SOUTHWEST AND SOUTH CENTRAL SOUTH DAKOTA

CITY           SKY/WX    TMP DP  RH WIND       PRES   REMARKS
RAPID CTY ARPT MOSUNNY   51  32  48 S14       29.92F
PIERRE         CLOUDY    34  33  96 S15       30.08R WCI  24
CUSTER         CLOUDY    49  26  41 SW8       29.95F
ELLSWORTH AFB  CLOUDY    51  32  47 S13       29.91F
PHILIP         MOSUNNY   47  34  60 E13       30.00F
PINE RIDGE     SUNNY     56  31  38 S16       29.97F
SPEARFISH      FAIR      55  32  41 CALM      29.92S
WINNER         CLOUDY    37  33  85 S10       30.07F
$$

SDZ004>011-016>023-039-040-251700-
NORTHEAST SOUTH DAKOTA

CITY           SKY/WX    TMP DP  RH WIND       PRES   REMARKS
ABERDEEN       CLOUDY    34  29  82 S12       30.14S WCI  25
WATERTOWN      CLOUDY    33  31  92 E9        30.12F WCI  25
BROOKINGS      CLOUDY    34  32  92 E8        30.11F WCI  27
SISSETON         N/A     35  32  88 S14       30.15F WCI  26
$$

SDZ017-020-022-023-036>040-048>070-251700-
SOUTHEAST SOUTH DAKOTA

CITY           SKY/WX    TMP DP  RH WIND       PRES   REMARKS
SIOUX FALLS    CLOUDY    39  36  89 NE16      30.10S
HURON          CLOUDY    35  31  85 SE8       30.13S WCI  29
CHAMBERLAIN    CLOUDY    36  34  92 E10       30.08F
MITCHELL       CLOUDY    36  33  89 E9        30.12F
YANKTON        CLOUDY    37  34  87 NE13      30.09F
$$

ABBREVIATIONS USED IN REMARKS
   TC - TEMPERATURE IN CELSIUS
  WCI - WIND CHILL INDEX
   HX - HEAT INDEX
  VSB - VISIBILITY




USA.gov is the U.S. government's official web portal to all federal, state and local government web resources and services.